COSMOS 2534 (758)

Last updated on Thu Dec 11 2025 00:03:19 GMT+0000 (Coordinated Universal Time)

1 44299U 19030A 25344.60722874 .00000047 00000+0 00000+0 0 9994 2 44299 64.3653 198.9649 0008999 283.4628 263.2195 2.13102261 50901
UTC large
Height (km)
Speed (km/s)
/
Latitude / Longitude
Inclination (degrees)
Orbital Period (minutes)
Azimuth
Elevation
Range (km)
Doppler Factor

Next 0 passes for location: London (51.5072 / 0.1276)

Sorry there are no passes over London.